Location: Unspecified
(0.0000°N, 0.0000°E)
Time: 05:08:39
(UTC+00:00)

Tiros 1 despin weight - Pass Details

Date: 02 October 2020
Orbit: 594 x 641 km, 48.2° (Epoch: 28 October)

Event Time Altitude Azimuth Distance (km) Brightness Sun altitude
Rises 08:04:35 0° 244° (WSW) 2,822 ? 33.7°
Reaches altitude 10° 08:07:19 10° 260° (W) 1,917 ? 34.4°
Maximum altitude 08:10:39 21° 310° (NW) 1,338 ? 35.3°
Drops below altitude 10° 08:13:59 10° 359° (N) 1,914 ? 36.1°
Sets 08:16:43 0° 16° (NNE) 2,817 ? 36.8°
